Regional Weather Roundup
Issued by NWS

Home | Current Version | Previous Version | Graphics & Text | Print | Product List | Glossary On
Versions: 1 2 3 4 5 6 7 8 9 10 11 12 13 14 15 16 17 18 19 20 21 22 23 24 25 26 27 28 29 30 31 32 33 34 35 36 37 38 39 40 41 42 43 44 45 46 47 48 49 50
000
ASUS43 KLSX 040307
RWRMO

WEATHER SUMMARY FOR MISSOURI
NATIONAL WEATHER SERVICE SPRINGFIELD MO
1000 PM CDT SUN MAY 03 2015

NOTE: "FAIR" INDICATES FEW OR NO CLOUDS BELOW 12,000 FEET WITH NO
       SIGNIFICANT WEATHER AND/OR OBSTRUCTIONS TO VISIBILITY.
       CURRENT SKY AND/OR WEATHER CONDITIONS ARE NOT AVAILABLE FOR
       CHILLICOTHE AND FARMINGTON.

MOZ001>031-035>038-043-044-053-054-040400-
...NORTHERN AND WESTERN MISSOURI...

CITY           SKY/WX    TMP DP  RH WIND       PRES   REMARKS
KANSAS CTY INT CLOUDY    73  58  59 S20G25    29.87R
KANSAS C DTWN  PTCLDY    74  57  55 S14       29.85S
LEE`S SUMMIT   CLEAR     73  56  54 S13G25    29.88S
ST JOSEPH      CLOUDY    75  58  55 S10       29.86R
CHILLICOTHE      N/A     72  58  61 S6        29.88R
KIRKSVILLE     PTCLDY    73  57  57 SW13      29.88R

$$
MOZ066>068-077>081-088>096-101>105-040400-
...SOUTHWEST MISSOURI...

CITY           SKY/WX    TMP DP  RH WIND       PRES   REMARKS
SPRINGFIELD    PTCLDY    66  55  67 S8        29.98R
JOPLIN         PTCLDY    68  57  68 S8        29.96R

$$
MOZ032>034-039>042-045>050-055>058-069>072-040400-
...CENTRAL MISSOURI...

CITY           SKY/WX    TMP DP  RH WIND       PRES   REMARKS
COLUMBIA       PTCLDY    68  56  65 S8        29.94R
JEFFERSON CITY PTCLDY    73  53  49 SE6       29.94R
ROLLA          PTCLDY    69  54  58 S8        29.97R
SEDALIA        CLEAR     68  56  65 S9        29.93R
WHITEMAN AFB   CLOUDY    71  58  64 S12       29.89R
WARRENSBURG    PTCLDY    70  55  60 S9        29.89F
OSAGE BEACH    MOCLDY    72  54  53 S7        29.96R

$$
MOZ051-052-059>065-040400-
...EAST CENTRAL MISSOURI...

CITY           SKY/WX    TMP DP  RH WIND       PRES   REMARKS
ST LOUIS INTL  MOCLDY    77  50  38 S10       29.97S
SPIRIT OF STL  MOCLDY    74  50  42 S6        29.95R
ST CHARLES     MOCLDY    73  51  46 S12       29.94S

$$
MOZ072>076-082>087-097>100-106>115-040400-
...SOUTH CENTRAL AND SOUTHEAST MISSOURI...

CITY           SKY/WX    TMP DP  RH WIND       PRES   REMARKS
CAPE GIRARDEAU MOCLDY    71  47  42 S12       30.03R
FARMINGTON     MOCLDY    68  52  56 SE6       30.06R
POPLAR BLUFF   PTCLDY    71  52  50 S6        30.02R
WEST PLAINS    PTCLDY    70  53  54 S6        30.03R

$$



USA.gov is the U.S. government's official web portal to all federal, state and local government web resources and services.